Regional Weather Roundup
Issued by NWS Huntsville, AL

Home | Current Version | Previous Version | Text Only | Print | Product List | Glossary On
Versions: 1 2 3 4 5 6 7 8 9 10 11 12 13 14 15 16 17 18 19 20 21 22 23 24 25 26 27 28 29 30 31 32 33 34 35 36 37 38 39 40 41 42 43 44 45 46 47 48 49 50
000
ASUS44 KHUN 281310
RWRHUN

WEATHER ROUNDUP FOR THE TENNESSEE VALLEY
NATIONAL WEATHER SERVICE HUNTSVILLE AL
800 AM CDT MON JUL 28 2014

ALZ001>004-281400-
NORTHWEST ALABAMA

CITY           SKY/WX    TMP DP  RH WIND       PRES   REMARKS
COURTLAND HCN    N/A     75 N/A N/A CALM        N/A
RUSSELLVILLE     N/A     75 N/A N/A MISG        N/A
SHOALS AIRPORT SUNNY     76  63  64 N7        30.03R
$$

ALZ005>007-016-281400-
NORTH CENTRAL ALABAMA

CITY           SKY/WX    TMP DP  RH WIND       PRES   REMARKS
CULLMAN AG STN   N/A     75 N/A N/A N5          N/A
DECATUR AP     SUNNY     76  66  71 N9        30.01R
HUNTSVILLE AP  MOSUNNY   77  65  66 N8        30.00R
HUN NWS/UAH      N/A     77  62  61 VRB8        N/A
MERIDIANVILLE  SUNNY     73  64  73 NW8       30.01R
REDSTONE ARSN  SUNNY     82  64  54 N7        30.01
VINEMONT AP    FAIR      75  67  74 N3        30.03R
$$

ALZ008>010-281400-
NORTHEAST ALABAMA

CITY           SKY/WX    TMP DP  RH WIND       PRES   REMARKS
ALBERTVILLE    MOSUNNY   77  72  83 NW8       29.99R
FORT PAYNE     SUNNY     73  68  83 CALM      29.98R
SCOTTSBORO AP  SUNNY     77  70  78 N6        29.99R
SCOTTSBORO HCN   N/A     73 N/A N/A MISG        N/A
VALLEY HEAD      N/A     72 N/A N/A MISG        N/A
$$

TNZ076-096-097-281400-
SOUTHEASTERN MIDDLE TENNESSEE

CITY           SKY/WX    TMP DP  RH WIND       PRES   REMARKS
FAYETTEVILLE   SUNNY     72  63  73 N7        30.02R
TULLAHOMA      SUNNY     70  63  78 N8        30.02S
WINCHESTER     SUNNY     72  64  78 N5        30.01R
$$

...SURROUNDING SITES...

CITY           SKY/WX    TMP DP  RH WIND       PRES   REMARKS
ATLANTA        PTSUNNY   80  74  81 W10       29.95R
ANNISTON       SUNNY     79  75  87 SW6       29.97R
BIRMINGHAM     CLOUDY    80  74  81 W9        30.00S
CHATTANOOGA    MOSUNNY   77  68  73 W8        29.97R
CORINTH        FAIR      73  63  68 N6        30.04R
DALTON         SUNNY     73  73 100 N6        29.96S
GADSDEN        MOSUNNY   81  72  74 NW7       29.97R
GOLDEN TRNGL   MOSUNNY   79  73  83 NW7       30.01R
HALEYVILLE     FAIR      76  67  73 N7        30.05R
JACKSON TN     SUNNY     73  61  65 N5        30.06R
LEWISBURG      FAIR      72  64  75 NW3       30.01R
MEMPHIS        MOSUNNY   77  61  57 NE8       30.07R
MURFREESBORO   FAIR      71  62  73 NW6       30.00R
NASHVILLE      SUNNY     73  61  65 NW8       30.01R
ROME           SUNNY     81  71  71 N5        29.95R
SAVANNAH       SUNNY     73  64  73 VRB5      30.04S
TUPELO         MOSUNNY   78  66  66 NE13      30.03R
TUSCALOOSA     MOSUNNY   82  75  79 W7        29.98S
$$

...GULF COAST WEATHER...

CITY           SKY/WX    TMP DP  RH WIND       PRES   REMARKS
GULFPORT       SUNNY     84  76  76 W9        30.06S HX  93
PASCAGOULA     SUNNY     82  76  81 W8        30.06S
MOBILE         MOSUNNY   79  77  94 W8        30.07R
GULF SHORES      N/A     83  77  82 W9        30.05S HX  91
PENSACOLA      SUNNY     83  77  82 VRB7      30.04S HX  92
DESTIN         SUNNY     85  78  80 VRB6      30.03S HX  96
PANAMA CITY    MOSUNNY   84  81  89 W14       30.04R HX  99
APPALACHICOLA  PTSUNNY   81  78  91 W12       30.04R
$$



USA.gov is the U.S. government's official web portal to all federal, state and local government web resources and services.